Weather History for Concord, CA

Change the Weather History Date:

Thursday, February 7, 2013

  Actual Average Record
Temperature  
Mean Temperature 48 °F 50 °F  
Max Temperature 55 °F 59 °F 73 °F (2011)
Min Temperature 40 °F 42 °F 35 °F (2001)
Degree Days  
Heating Degree Days 17    
Month to date heating degree days 106  
Since 1 July heating degree days 1635  
Cooling Degree Days 0    
Month to date cooling degree days 0  
Year to date cooling degree days 0  
Moisture  
Dew Point 39 °F    
Average Humidity 67    
Maximum Humidity 89    
Minimum Humidity 45    
Precipitation  
Precipitation 0.08 in - 0.43 in (2002)
Month to date precipitation 0.08  
Year to date precipitation 0.48  
Since 1 July precipitation 10.12  
Sea Level Pressure  
Sea Level Pressure 30.06 in    
Wind  
Wind Speed 8 mph (SW)    
Max Wind Speed 16 mph    
Max Gust Speed 20 mph    
Visibility 9 miles    
Events Rain    
T = Trace of Precipitation, MM = Missing Value Source: NWS Daily Summary

Daily Weather History Graph

Daily Weather History Graph

Search for Another Location

Airport:

Trip Planner

Search our weather history database for the weather conditions in past years. The results will help you decide how hot, cold, wet, or windy it might be!

Date:

Astronomy

Feb. 07, 2013 Rise Set
Actual Time 7:06 AM PST 5:38 PM PST
Civil Twilight 6:39 AM PST 6:05 PM PST
Nautical Twilight 6:08 AM PST 6:37 PM PST
Astronomical Twilight 5:37 AM PST 7:07 PM PST
Moon 4:49 AM PST (2/7) 3:10 PM PST (2/7)
Length of Visible Light 11h 26m
Length of Day
10h 31m
Waning Crescent, 8% of the Moon is Illuminated
Feb 7
Waning Crescent
Feb 9
New
Feb 17
First Quarter
Feb 25
Full
Mar 4
Last Quarter

Hourly Weather History & Observations

Time (PST) Temp. Windchill Dew Point Humidity Pressure Visibility Wind Dir Wind Speed Gust Speed Precip Events Conditions
12:53 AM 42.1 °F 38.4 °F 39.0 °F 89% 30.14 in 10.0 mi South 5.8 mph - N/A   Clear
1:53 AM 41.0 °F 37.1 °F 37.9 °F 89% 30.13 in 10.0 mi SSE 5.8 mph - N/A   Scattered Clouds
2:53 AM 42.1 °F - 39.9 °F 92% 30.13 in 10.0 mi Calm Calm - N/A   Mostly Cloudy
3:53 AM 44.1 °F 39.5 °F 39.9 °F 85% 30.11 in 10.0 mi South 8.1 mph - N/A   Mostly Cloudy
4:53 AM 42.1 °F 35.7 °F 39.0 °F 89% 30.10 in 10.0 mi SSW 11.5 mph - N/A   Clear
5:53 AM 42.1 °F 36.6 °F 39.0 °F 89% 30.09 in 10.0 mi South 9.2 mph - N/A   Scattered Clouds
6:53 AM 42.1 °F 38.4 °F 37.9 °F 85% 30.08 in 10.0 mi South 5.8 mph - N/A   Clear
7:53 AM 44.1 °F 38.6 °F 39.0 °F 82% 30.08 in 9.0 mi SSW 10.4 mph - N/A   Mostly Cloudy
8:53 AM 46.9 °F - 41.0 °F 80% 30.09 in 4.0 mi SSW 10.4 mph - 0.01 in Rain Rain
9:20 AM 44.6 °F 40.2 °F 42.8 °F 93% 30.16 in 2.0 mi West 8.1 mph - 0.06 in Rain Rain
9:53 AM 46.9 °F - 43.0 °F 86% 30.11 in 10.0 mi SSW 6.9 mph - 0.07 in   Mostly Cloudy
10:53 AM 51.1 °F - 44.1 °F 77% 30.10 in 10.0 mi South 8.1 mph - N/A   Mostly Cloudy
11:53 AM 53.1 °F - 41.0 °F 64% 30.09 in 10.0 mi WNW 8.1 mph 18.4 mph N/A   Mostly Cloudy
12:53 PM 54.0 °F - 41.0 °F 62% 30.06 in 10.0 mi WNW 11.5 mph - N/A   Mostly Cloudy
1:53 PM 53.1 °F - 39.0 °F 59% 30.04 in 10.0 mi West 13.8 mph - N/A   Scattered Clouds
2:53 PM 54.0 °F - 33.1 °F 45% 30.03 in 10.0 mi WNW 11.5 mph - N/A   Scattered Clouds
3:53 PM 54.0 °F - 32.0 °F 43% 30.03 in 10.0 mi WNW 12.7 mph - N/A   Clear
4:53 PM 50.0 °F - 37.0 °F 61% 30.02 in 10.0 mi WSW 6.9 mph - N/A   Scattered Clouds
5:53 PM 48.0 °F - 37.0 °F 66% 30.01 in 10.0 mi SW 6.9 mph - N/A   Clear
6:53 PM 46.0 °F 43.9 °F 37.0 °F 71% 30.01 in 10.0 mi WSW 4.6 mph - N/A   Scattered Clouds
7:53 PM 45.0 °F 40.6 °F 37.0 °F 74% 30.01 in 10.0 mi SSW 8.1 mph - N/A   Partly Cloudy
8:53 PM 45.0 °F 41.2 °F 37.0 °F 74% 30.00 in 10.0 mi SSW 6.9 mph - N/A   Partly Cloudy
9:53 PM 45.0 °F 39.7 °F 39.0 °F 80% 29.99 in 10.0 mi SSW 10.4 mph - N/A   Clear
10:53 PM 43.0 °F 37.2 °F 39.0 °F 86% 29.97 in 10.0 mi SSW 10.4 mph - N/A   Clear
11:53 PM 42.1 °F 39.2 °F 37.9 °F 85% 29.96 in 10.0 mi South 4.6 mph - N/A   Clear